Location: Newark
(46.4000°N, 12.3500°E)
Time: 14:33:58
(UTC+00:00)

Envisat - Visible Passes

Search period start: 15 October 2019 00:00
Search period end: 25 October 2019 00:00
Orbit: 764 x 766 km, 98.1° (Epoch: 15 October)

Date Brightness Start Highest point End Pass type
(mag) Time Alt. Az. Time Alt. Az. Time Alt. Az.
15 Oct 3.2 17:16:59 10° S 17:22:04 79° WSW 17:27:11 10° NNW visible
15 Oct 6.3 19:01:16 10° W 19:01:55 10° W 19:02:35 10° WNW visible
16 Oct 5.5 18:20:44 10° SW 18:24:41 22° W 18:28:39 10° NW visible
17 Oct 6.3 04:48:07 10° NE 04:50:48 14° E 04:53:29 10° ESE visible
17 Oct 4.1 17:42:46 10° S 17:47:39 46° W 17:52:33 10° NNW visible
18 Oct 3.0 17:05:44 10° SSE 17:10:48 84° ENE 17:15:56 10° NNW visible
18 Oct 6.1 18:48:07 10° WSW 18:50:30 13° W 18:52:53 10° WNW visible
19 Oct 5.1 18:08:59 10° SSW 18:13:19 28° W 18:17:40 10° NW visible
20 Oct 6.6 04:37:56 10° ENE 04:39:23 11° E 04:40:50 10° ESE visible
20 Oct 3.7 17:31:20 10° S 17:36:20 58° W 17:41:22 10° NNW visible
21 Oct 3.0 16:54:31 10° SSE 16:59:33 68° ENE 17:04:38 10° N visible
21 Oct 5.9 18:35:53 10° SW 18:39:05 17° W 18:42:18 10° NW visible
22 Oct 6.0 05:01:35 10° NE 05:05:14 19° E 05:08:51 10° SE visible
22 Oct 4.7 17:57:22 10° SSW 18:01:58 34° W 18:06:36 10° NNW visible
23 Oct 3.3 17:19:59 10° S 17:25:03 73° WSW 17:30:09 10° NNW visible
24 Oct 3.1 16:43:24 10° SSE 16:48:20 55° ENE 16:53:18 10° N visible
24 Oct 5.6 18:23:56 10° SW 18:27:42 21° W 18:31:29 10° NW visible
